Netzbetreibername:;Netze Duisburg GmbH
Netz- oder Umspannebene:;
Lastgangtyp:;Netzverluste
gesetzliche Grundlage:;� 23c Abs. 3 Nr. 3 EnWG
Einheit:;kW
;
Datum;Wert
01.01.2021 00:00;6.126
01.01.2021 00:15;6.227
01.01.2021 00:30;5.998
01.01.2021 00:45;5.924
01.01.2021 01:00;5.769
01.01.2021 01:15;5.609
01.01.2021 01:30;5.447
01.01.2021 01:45;5.248
01.01.2021 02:00;5.039
01.01.2021 02:15;4.849
01.01.2021 02:30;4.664
01.01.2021 02:45;4.519
01.01.2021 03:00;4.361
01.01.2021 03:15;4.227
01.01.2021 03:30;4.148
01.01.2021 03:45;4.044
01.01.2021 04:00;3.940
01.01.2021 04:15;3.850
01.01.2021 04:30;3.787
01.01.2021 04:45;3.751
01.01.2021 05:00;3.718
01.01.2021 05:15;3.626
01.01.2021 05:30;3.560
01.01.2021 05:45;3.502
01.01.2021 06:00;3.492
01.01.2021 06:15;3.397
01.01.2021 06:30;3.437
01.01.2021 06:45;3.408
01.01.2021 07:00;3.505
01.01.2021 07:15;3.630
01.01.2021 07:30;3.721
01.01.2021 07:45;3.872
01.01.2021 08:00;4.037
01.01.2021 08:15;4.136
01.01.2021 08:30;4.315
01.01.2021 08:45;4.598
01.01.2021 09:00;5.015
01.01.2021 09:15;5.483
01.01.2021 09:30;5.874
01.01.2021 09:45;6.345
01.01.2021 10:00;6.831
01.01.2021 10:15;7.288
01.01.2021 10:30;7.789
01.01.2021 10:45;8.272
01.01.2021 11:00;8.791
01.01.2021 11:15;9.386
01.01.2021 11:30;9.986
01.01.2021 11:45;10.319
01.01.2021 12:00;10.627
01.01.2021 12:15;10.959
01.01.2021 12:30;11.076
01.01.2021 12:45;10.940
01.01.2021 13:00;10.990
01.01.2021 13:15;10.920
01.01.2021 13:30;10.823
01.01.2021 13:45;10.656
01.01.2021 14:00;11.037
01.01.2021 14:15;11.111
01.01.2021 14:30;10.985
01.01.2021 14:45;10.782
01.01.2021 15:00;10.792
01.01.2021 15:15;10.875
01.01.2021 15:30;10.692
01.01.2021 15:45;10.723
01.01.2021 16:00;10.443
01.01.2021 16:15;10.908
01.01.2021 16:30;11.374
01.01.2021 16:45;12.056
01.01.2021 17:00;12.708
01.01.2021 17:15;13.056
01.01.2021 17:30;13.341
01.01.2021 17:45;13.419
01.01.2021 18:00;13.300
01.01.2021 18:15;13.334
01.01.2021 18:30;13.195
01.01.2021 18:45;12.750
01.01.2021 19:00;12.641
01.01.2021 19:15;12.359
01.01.2021 19:30;11.926
01.01.2021 19:45;11.596
01.01.2021 20:00;10.967
01.01.2021 20:15;10.667
01.01.2021 20:30;10.575
01.01.2021 20:45;10.317
01.01.2021 21:00;10.236
01.01.2021 21:15;10.180
01.01.2021 21:30;9.976
01.01.2021 21:45;9.854
01.01.2021 22:00;9.275
01.01.2021 22:15;8.808
01.01.2021 22:30;8.436
01.01.2021 22:45;7.867
01.01.2021 23:00;7.361
01.01.2021 23:15;7.058
01.01.2021 23:30;6.550
01.01.2021 23:45;6.040
02.01.2021 00:00;5.616
02.01.2021 00:15;5.214
02.01.2021 00:30;4.940
02.01.2021 00:45;4.719
02.01.2021 01:00;4.527
02.01.2021 01:15;4.341
02.01.2021 01:30;4.180
02.01.2021 01:45;4.065
02.01.2021 02:00;3.966
02.01.2021 02:15;3.885
02.01.2021 02:30;3.793
02.01.2021 02:45;3.764
02.01.2021 03:00;3.745
02.01.2021 03:15;3.712
02.01.2021 03:30;3.694
02.01.2021 03:45;3.671
02.01.2021 04:00;3.688
02.01.2021 04:15;3.663
02.01.2021 04:30;3.659
02.01.2021 04:45;3.716
02.01.2021 05:00;3.764
02.01.2021 05:15;3.722
02.01.2021 05:30;3.725
02.01.2021 05:45;3.732
02.01.2021 06:00;3.861
02.01.2021 06:15;3.892
02.01.2021 06:30;3.980
02.01.2021 06:45;4.092
02.01.2021 07:00;4.345
02.01.2021 07:15;4.559
02.01.2021 07:30;4.883
02.01.2021 07:45;5.165
02.01.2021 08:00;5.578
02.01.2021 08:15;5.892
02.01.2021 08:30;6.250
02.01.2021 08:45;6.635
02.01.2021 09:00;7.287
02.01.2021 09:15;7.931
02.01.2021 09:30;8.460
02.01.2021 09:45;8.879
02.01.2021 10:00;9.377
02.01.2021 10:15;9.963
02.01.2021 10:30;10.395
02.01.2021 10:45;10.753
02.01.2021 11:00;11.213
02.01.2021 11:15;11.521
02.01.2021 11:30;12.067
02.01.2021 11:45;12.472
02.01.2021 12:00;12.842
02.01.2021 12:15;12.956
02.01.2021 12:30;13.266
02.01.2021 12:45;13.251
02.01.2021 13:00;13.263
02.01.2021 13:15;13.266
02.01.2021 13:30;13.091
02.01.2021 13:45;12.899
02.01.2021 14:00;13.313
02.01.2021 14:15;13.568
02.01.2021 14:30;13.636
02.01.2021 14:45;13.546
02.01.2021 15:00;13.401
02.01.2021 15:15;13.273
02.01.2021 15:30;13.168
02.01.2021 15:45;12.968
02.01.2021 16:00;12.780
02.01.2021 16:15;12.977
02.01.2021 16:30;13.308
02.01.2021 16:45;13.836
02.01.2021 17:00;14.331
02.01.2021 17:15;14.872
02.01.2021 17:30;15.209
02.01.2021 17:45;15.164
02.01.2021 18:00;14.972
02.01.2021 18:15;14.929
02.01.2021 18:30;14.744
02.01.2021 18:45;14.175
02.01.2021 19:00;13.947
02.01.2021 19:15;13.474
02.01.2021 19:30;12.967
02.01.2021 19:45;12.652
02.01.2021 20:00;11.983
02.01.2021 20:15;11.572
02.01.2021 20:30;11.382
02.01.2021 20:45;11.023
02.01.2021 21:00;10.694
02.01.2021 21:15;10.728
02.01.2021 21:30;10.479
02.01.2021 21:45;10.334
02.01.2021 22:00;9.782
02.01.2021 22:15;9.309
02.01.2021 22:30;8.800
02.01.2021 22:45;8.384
02.01.2021 23:00;7.805
02.01.2021 23:15;7.391
02.01.2021 23:30;6.960
02.01.2021 23:45;6.515
03.01.2021 00:00;6.082
03.01.2021 00:15;5.676
03.01.2021 00:30;5.323
03.01.2021 00:45;4.993
03.01.2021 01:00;4.703
03.01.2021 01:15;4.520
03.01.2021 01:30;4.349
03.01.2021 01:45;4.176
03.01.2021 02:00;4.074
03.01.2021 02:15;3.945
03.01.2021 02:30;3.854
03.01.2021 02:45;3.786
03.01.2021 03:00;3.705
03.01.2021 03:15;3.669
03.01.2021 03:30;3.628
03.01.2021 03:45;3.612
03.01.2021 04:00;3.594
03.01.2021 04:15;3.537
03.01.2021 04:30;3.523
03.01.2021 04:45;3.502
03.01.2021 05:00;3.517
03.01.2021 05:15;3.476
03.01.2021 05:30;3.441
03.01.2021 05:45;3.397
03.01.2021 06:00;3.435
03.01.2021 06:15;3.392
03.01.2021 06:30;3.462
03.01.2021 06:45;3.469
03.01.2021 07:00;3.687
03.01.2021 07:15;3.830
03.01.2021 07:30;4.063
03.01.2021 07:45;4.275
03.01.2021 08:00;4.620
03.01.2021 08:15;4.978
03.01.2021 08:30;5.261
03.01.2021 08:45;5.763
03.01.2021 09:00;6.295
03.01.2021 09:15;6.951
03.01.2021 09:30;7.456
03.01.2021 09:45;8.110
03.01.2021 10:00;8.748
03.01.2021 10:15;9.454
03.01.2021 10:30;9.986
03.01.2021 10:45;10.573
03.01.2021 11:00;11.179
03.01.2021 11:15;11.877
03.01.2021 11:30;12.388
03.01.2021 11:45;12.823
03.01.2021 12:00;13.283
03.01.2021 12:15;13.689
03.01.2021 12:30;13.793
03.01.2021 12:45;13.955
03.01.2021 13:00;14.039
03.01.2021 13:15;13.959
03.01.2021 13:30;13.775
03.01.2021 13:45;13.458
03.01.2021 14:00;13.847
03.01.2021 14:15;14.111
03.01.2021 14:30;14.197
03.01.2021 14:45;13.937
03.01.2021 15:00;13.683
03.01.2021 15:15;13.367
03.01.2021 15:30;13.143
03.01.2021 15:45;13.044
03.01.2021 16:00;12.701
03.01.2021 16:15;12.702
03.01.2021 16:30;13.118
03.01.2021 16:45;13.915
03.01.2021 17:00;15.011
03.01.2021 17:15;15.300
03.01.2021 17:30;15.659
03.01.2021 17:45;15.572
03.01.2021 18:00;15.447
03.01.2021 18:15;15.230
03.01.2021 18:30;15.022
03.01.2021 18:45;14.628
03.01.2021 19:00;14.363
03.01.2021 19:15;13.996
03.01.2021 19:30;13.542
03.01.2021 19:45;13.128
03.01.2021 20:00;12.630
03.01.2021 20:15;11.997
03.01.2021 20:30;11.891
03.01.2021 20:45;11.388
03.01.2021 21:00;10.916
03.01.2021 21:15;10.674
03.01.2021 21:30;10.532
03.01.2021 21:45;10.388
03.01.2021 22:00;9.843
03.01.2021 22:15;9.368
03.01.2021 22:30;8.667
03.01.2021 22:45;8.130
03.01.2021 23:00;7.479
03.01.2021 23:15;6.985
03.01.2021 23:30;6.481
03.01.2021 23:45;5.937
04.01.2021 00:00;5.565
04.01.2021 00:15;5.187
04.01.2021 00:30;4.884
04.01.2021 00:45;4.623
04.01.2021 01:00;4.433
04.01.2021 01:15;4.303
04.01.2021 01:30;4.149
04.01.2021 01:45;4.036
04.01.2021 02:00;3.976
04.01.2021 02:15;3.886
04.01.2021 02:30;3.853
04.01.2021 02:45;3.838
04.01.2021 03:00;3.868
04.01.2021 03:15;3.843
04.01.2021 03:30;3.902
04.01.2021 03:45;3.932
04.01.2021 04:00;4.035
04.01.2021 04:15;4.141
04.01.2021 04:30;4.253
04.01.2021 04:45;4.389
04.01.2021 05:00;4.768
04.01.2021 05:15;4.830
04.01.2021 05:30;5.088
04.01.2021 05:45;5.452
04.01.2021 06:00;6.112
04.01.2021 06:15;6.494
04.01.2021 06:30;6.894
04.01.2021 06:45;7.148
04.01.2021 07:00;7.777
04.01.2021 07:15;8.233
04.01.2021 07:30;8.566
04.01.2021 07:45;8.972
04.01.2021 08:00;9.454
04.01.2021 08:15;9.858
04.01.2021 08:30;9.988
04.01.2021 08:45;10.351
04.01.2021 09:00;10.764
04.01.2021 09:15;11.202
04.01.2021 09:30;11.555
04.01.2021 09:45;11.771
04.01.2021 10:00;12.055
04.01.2021 10:15;12.532
04.01.2021 10:30;12.879
04.01.2021 10:45;13.047
04.01.2021 11:00;13.339
04.01.2021 11:15;13.674
04.01.2021 11:30;13.989
04.01.2021 11:45;14.216
04.01.2021 12:00;14.790
04.01.2021 12:15;15.039
04.01.2021 12:30;15.291
04.01.2021 12:45;15.261
04.01.2021 13:00;15.254
04.01.2021 13:15;15.295
04.01.2021 13:30;14.971
04.01.2021 13:45;14.831
04.01.2021 14:00;15.447
04.01.2021 14:15;15.682
04.01.2021 14:30;15.832
04.01.2021 14:45;15.429
04.01.2021 15:00;15.397
04.01.2021 15:15;15.071
04.01.2021 15:30;14.992
04.01.2021 15:45;14.962
04.01.2021 16:00;14.945
04.01.2021 16:15;15.055
04.01.2021 16:30;15.395
04.01.2021 16:45;16.053
04.01.2021 17:00;16.676
04.01.2021 17:15;16.963
04.01.2021 17:30;17.222
04.01.2021 17:45;17.469
04.01.2021 18:00;17.298
04.01.2021 18:15;16.949
04.01.2021 18:30;16.647
04.01.2021 18:45;16.480
04.01.2021 19:00;16.162
04.01.2021 19:15;15.873
04.01.2021 19:30;15.126
04.01.2021 19:45;14.649
04.01.2021 20:00;13.644
04.01.2021 20:15;13.266
04.01.2021 20:30;13.181
04.01.2021 20:45;12.856
04.01.2021 21:00;12.347
04.01.2021 21:15;12.178
04.01.2021 21:30;11.849
04.01.2021 21:45;11.674
04.01.2021 22:00;10.972
04.01.2021 22:15;10.414
04.01.2021 22:30;9.743
04.01.2021 22:45;9.120
04.01.2021 23:00;8.409
04.01.2021 23:15;7.825
04.01.2021 23:30;7.246
04.01.2021 23:45;6.680
05.01.2021 00:00;6.249
05.01.2021 00:15;5.918
05.01.2021 00:30;5.609
05.01.2021 00:45;5.277
05.01.2021 01:00;5.019
05.01.2021 01:15;4.857
05.01.2021 01:30;4.728
05.01.2021 01:45;4.646
05.01.2021 02:00;4.478
05.01.2021 02:15;4.358
05.01.2021 02:30;4.312
05.01.2021 02:45;4.295
05.01.2021 03:00;4.281
05.01.2021 03:15;4.272
05.01.2021 03:30;4.303
05.01.2021 03:45;4.354
05.01.2021 04:00;4.465
05.01.2021 04:15;4.576
05.01.2021 04:30;4.666
05.01.2021 04:45;4.789
05.01.2021 05:00;5.078
05.01.2021 05:15;5.109
05.01.2021 05:30;5.317
05.01.2021 05:45;5.598
05.01.2021 06:00;6.190
05.01.2021 06:15;6.482
05.01.2021 06:30;6.986
05.01.2021 06:45;7.252
05.01.2021 07:00;7.881
05.01.2021 07:15;8.393
05.01.2021 07:30;8.704
05.01.2021 07:45;9.101
05.01.2021 08:00;9.646
05.01.2021 08:15;9.981
05.01.2021 08:30;10.172
05.01.2021 08:45;10.564
05.01.2021 09:00;10.791
05.01.2021 09:15;11.166
05.01.2021 09:30;11.391
05.01.2021 09:45;11.610
05.01.2021 10:00;11.885
05.01.2021 10:15;12.182
05.01.2021 10:30;12.446
05.01.2021 10:45;12.791
05.01.2021 11:00;13.184
05.01.2021 11:15;13.521
05.01.2021 11:30;13.842
05.01.2021 11:45;14.083
05.01.2021 12:00;14.314
05.01.2021 12:15;14.709
05.01.2021 12:30;15.092
05.01.2021 12:45;15.100
05.01.2021 13:00;14.988
05.01.2021 13:15;15.039
05.01.2021 13:30;14.792
05.01.2021 13:45;14.665
05.01.2021 14:00;14.967
05.01.2021 14:15;15.400
05.01.2021 14:30;15.311
05.01.2021 14:45;14.975
05.01.2021 15:00;15.180
05.01.2021 15:15;15.166
05.01.2021 15:30;15.111
05.01.2021 15:45;15.053
05.01.2021 16:00;14.905
05.01.2021 16:15;15.176
05.01.2021 16:30;15.312
05.01.2021 16:45;16.036
05.01.2021 17:00;16.571
05.01.2021 17:15;16.785
05.01.2021 17:30;17.089
05.01.2021 17:45;17.233
05.01.2021 18:00;16.988
05.01.2021 18:15;16.897
05.01.2021 18:30;16.531
05.01.2021 18:45;15.926
05.01.2021 19:00;15.666
05.01.2021 19:15;15.496
05.01.2021 19:30;15.052
05.01.2021 19:45;14.634
05.01.2021 20:00;13.927
05.01.2021 20:15;13.406
05.01.2021 20:30;13.073
05.01.2021 20:45;12.636
05.01.2021 21:00;12.323
05.01.2021 21:15;12.069
05.01.2021 21:30;11.761
05.01.2021 21:45;11.244
05.01.2021 22:00;10.860
05.01.2021 22:15;10.364
05.01.2021 22:30;9.673
05.01.2021 22:45;8.890
05.01.2021 23:00;8.294
05.01.2021 23:15;7.719
05.01.2021 23:30;7.107
05.01.2021 23:45;6.555
06.01.2021 00:00;6.096
06.01.2021 00:15;5.687
06.01.2021 00:30;5.386
06.01.2021 00:45;5.094
06.01.2021 01:00;4.857
06.01.2021 01:15;4.669
06.01.2021 01:30;4.493
06.01.2021 01:45;4.363
06.01.2021 02:00;4.282
06.01.2021 02:15;4.211
06.01.2021 02:30;4.168
06.01.2021 02:45;4.134
06.01.2021 03:00;4.138
06.01.2021 03:15;4.177
06.01.2021 03:30;4.149
06.01.2021 03:45;4.184
06.01.2021 04:00;4.272
06.01.2021 04:15;4.361
06.01.2021 04:30;4.572
06.01.2021 04:45;4.745
06.01.2021 05:00;4.993
06.01.2021 05:15;4.990
06.01.2021 05:30;5.195
06.01.2021 05:45;5.489
06.01.2021 06:00;6.052
06.01.2021 06:15;6.488
06.01.2021 06:30;6.869
06.01.2021 06:45;7.236
06.01.2021 07:00;7.815
06.01.2021 07:15;8.236
06.01.2021 07:30;8.684
06.01.2021 07:45;9.034
06.01.2021 08:00;9.540
06.01.2021 08:15;9.753
06.01.2021 08:30;9.992
06.01.2021 08:45;10.314
06.01.2021 09:00;10.781
06.01.2021 09:15;11.117
06.01.2021 09:30;11.205
06.01.2021 09:45;11.344
06.01.2021 10:00;11.623
06.01.2021 10:15;12.042
06.01.2021 10:30;12.407
06.01.2021 10:45;12.528
06.01.2021 11:00;12.802
06.01.2021 11:15;13.286
06.01.2021 11:30;13.721
06.01.2021 11:45;13.810
06.01.2021 12:00;14.105
06.01.2021 12:15;14.429
06.01.2021 12:30;14.732
06.01.2021 12:45;14.922
06.01.2021 13:00;14.790
06.01.2021 13:15;14.769
06.01.2021 13:30;14.435
06.01.2021 13:45;14.213
06.01.2021 14:00;14.781
06.01.2021 14:15;14.877
06.01.2021 14:30;14.958
06.01.2021 14:45;14.733
06.01.2021 15:00;14.689
06.01.2021 15:15;14.565
06.01.2021 15:30;14.276
06.01.2021 15:45;14.112
06.01.2021 16:00;13.883
06.01.2021 16:15;13.968
06.01.2021 16:30;14.533
06.01.2021 16:45;15.236
06.01.2021 17:00;16.187
06.01.2021 17:15;16.654
06.01.2021 17:30;16.795
06.01.2021 17:45;17.374
06.01.2021 18:00;17.129
06.01.2021 18:15;16.694
06.01.2021 18:30;16.596
06.01.2021 18:45;16.531
06.01.2021 19:00;16.398
06.01.2021 19:15;15.804
06.01.2021 19:30;15.368
06.01.2021 19:45;14.927
06.01.2021 20:00;14.025
06.01.2021 20:15;13.587
06.01.2021 20:30;13.264
06.01.2021 20:45;12.780
06.01.2021 21:00;12.232
06.01.2021 21:15;12.094
06.01.2021 21:30;11.673
06.01.2021 21:45;11.429
06.01.2021 22:00;10.928
06.01.2021 22:15;10.425
06.01.2021 22:30;9.721
06.01.2021 22:45;8.898
06.01.2021 23:00;8.201
06.01.2021 23:15;7.610
06.01.2021 23:30;7.109
06.01.2021 23:45;6.668
07.01.2021 00:00;6.159
07.01.2021 00:15;5.791
07.01.2021 00:30;5.468
07.01.2021 00:45;5.225
07.01.2021 01:00;4.954
07.01.2021 01:15;4.728
07.01.2021 01:30;4.580
07.01.2021 01:45;4.509
07.01.2021 02:00;4.429
07.01.2021 02:15;4.350
07.01.2021 02:30;4.296
07.01.2021 02:45;4.269
07.01.2021 03:00;4.281
07.01.2021 03:15;4.301
07.01.2021 03:30;4.336
07.01.2021 03:45;4.383
07.01.2021 04:00;4.512
07.01.2021 04:15;4.587
07.01.2021 04:30;4.671
07.01.2021 04:45;4.822
07.01.2021 05:00;5.105
07.01.2021 05:15;5.134
07.01.2021 05:30;5.302
07.01.2021 05:45;5.620
07.01.2021 06:00;6.206
07.01.2021 06:15;6.623
07.01.2021 06:30;6.996
07.01.2021 06:45;7.330
07.01.2021 07:00;7.914
07.01.2021 07:15;8.345
07.01.2021 07:30;8.743
07.01.2021 07:45;9.249
07.01.2021 08:00;9.777
07.01.2021 08:15;9.982
07.01.2021 08:30;10.178
07.01.2021 08:45;10.520
07.01.2021 09:00;10.738
07.01.2021 09:15;11.137
07.01.2021 09:30;11.324
07.01.2021 09:45;11.611
07.01.2021 10:00;11.901
07.01.2021 10:15;12.187
07.01.2021 10:30;12.410
07.01.2021 10:45;12.685
07.01.2021 11:00;12.842
07.01.2021 11:15;13.221
07.01.2021 11:30;13.669
07.01.2021 11:45;13.772
07.01.2021 12:00;14.040
07.01.2021 12:15;14.333
07.01.2021 12:30;14.614
07.01.2021 12:45;14.603
07.01.2021 13:00;14.471
07.01.2021 13:15;14.499
07.01.2021 13:30;14.294
07.01.2021 13:45;14.228
07.01.2021 14:00;14.801
07.01.2021 14:15;14.942
07.01.2021 14:30;15.078
07.01.2021 14:45;14.803
07.01.2021 15:00;14.843
07.01.2021 15:15;14.566
07.01.2021 15:30;14.284
07.01.2021 15:45;14.164
07.01.2021 16:00;14.101
07.01.2021 16:15;14.124
07.01.2021 16:30;14.601
07.01.2021 16:45;15.435
07.01.2021 17:00;16.441
07.01.2021 17:15;16.814
07.01.2021 17:30;16.787
07.01.2021 17:45;16.874
07.01.2021 18:00;16.789
07.01.2021 18:15;16.496
07.01.2021 18:30;16.148
07.01.2021 18:45;16.166
07.01.2021 19:00;15.775
07.01.2021 19:15;15.536
07.01.2021 19:30;15.019
07.01.2021 19:45;14.556
07.01.2021 20:00;13.722
07.01.2021 20:15;13.281
07.01.2021 20:30;13.085
07.01.2021 20:45;12.489
07.01.2021 21:00;12.176
07.01.2021 21:15;11.986
07.01.2021 21:30;11.721
07.01.2021 21:45;11.277
07.01.2021 22:00;11.049
07.01.2021 22:15;10.385
07.01.2021 22:30;9.602
07.01.2021 22:45;8.932
07.01.2021 23:00;8.186
07.01.2021 23:15;7.643
07.01.2021 23:30;7.106
07.01.2021 23:45;6.609
08.01.2021 00:00;6.136
08.01.2021 00:15;5.744
08.01.2021 00:30;5.405
08.01.2021 00:45;5.142
08.01.2021 01:00;4.995
08.01.2021 01:15;4.849
08.01.2021 01:30;4.701
08.01.2021 01:45;4.572
08.01.2021 02:00;4.461
08.01.2021 02:15;4.389
08.01.2021 02:30;4.341
08.01.2021 02:45;4.302
08.01.2021 03:00;4.315
08.01.2021 03:15;4.319
08.01.2021 03:30;4.279
08.01.2021 03:45;4.341
08.01.2021 04:00;4.443
08.01.2021 04:15;4.499
08.01.2021 04:30;4.617
08.01.2021 04:45;4.797
08.01.2021 05:00;5.067
08.01.2021 05:15;5.142
08.01.2021 05:30;5.349
08.01.2021 05:45;5.640
08.01.2021 06:00;6.173
08.01.2021 06:15;6.535
08.01.2021 06:30;7.061
08.01.2021 06:45;7.431
08.01.2021 07:00;8.029
08.01.2021 07:15;8.581
08.01.2021 07:30;8.907
08.01.2021 07:45;9.357
08.01.2021 08:00;9.850
08.01.2021 08:15;10.019
08.01.2021 08:30;10.351
08.01.2021 08:45;10.610
08.01.2021 09:00;10.948
08.01.2021 09:15;11.247
08.01.2021 09:30;11.515
08.01.2021 09:45;11.806
08.01.2021 10:00;12.088
08.01.2021 10:15;12.429
08.01.2021 10:30;12.755
08.01.2021 10:45;12.934
08.01.2021 11:00;13.322
08.01.2021 11:15;13.813
08.01.2021 11:30;14.036
08.01.2021 11:45;14.194
08.01.2021 12:00;14.385
08.01.2021 12:15;14.776
08.01.2021 12:30;14.875
08.01.2021 12:45;14.892
08.01.2021 13:00;14.780
08.01.2021 13:15;14.652
08.01.2021 13:30;14.416
08.01.2021 13:45;14.457
08.01.2021 14:00;15.130
08.01.2021 14:15;15.372
08.01.2021 14:30;15.304
08.01.2021 14:45;15.164
08.01.2021 15:00;15.026
08.01.2021 15:15;15.018
08.01.2021 15:30;14.916
08.01.2021 15:45;14.784
08.01.2021 16:00;14.472
08.01.2021 16:15;14.666
08.01.2021 16:30;14.815
08.01.2021 16:45;15.350
08.01.2021 17:00;16.005
08.01.2021 17:15;16.441
08.01.2021 17:30;16.588
08.01.2021 17:45;16.719
08.01.2021 18:00;16.640
08.01.2021 18:15;16.494
08.01.2021 18:30;16.183
08.01.2021 18:45;16.018
08.01.2021 19:00;15.663
08.01.2021 19:15;15.090
08.01.2021 19:30;14.529
08.01.2021 19:45;13.955
08.01.2021 20:00;13.239
08.01.2021 20:15;12.864
08.01.2021 20:30;12.784
08.01.2021 20:45;12.361
08.01.2021 21:00;11.960
08.01.2021 21:15;12.054
08.01.2021 21:30;11.670
08.01.2021 21:45;11.317
08.01.2021 22:00;10.848
08.01.2021 22:15;10.320
08.01.2021 22:30;9.756
08.01.2021 22:45;9.142
08.01.2021 23:00;8.539
08.01.2021 23:15;8.055
08.01.2021 23:30;7.609
08.01.2021 23:45;7.161
09.01.2021 00:00;6.725
09.01.2021 00:15;6.266
09.01.2021 00:30;5.942
09.01.2021 00:45;5.600
09.01.2021 01:00;5.360
09.01.2021 01:15;5.125
09.01.2021 01:30;4.988
09.01.2021 01:45;4.764
09.01.2021 02:00;4.629
09.01.2021 02:15;4.556
09.01.2021 02:30;4.481
09.01.2021 02:45;4.409
09.01.2021 03:00;4.359
09.01.2021 03:15;4.276
09.01.2021 03:30;4.231
09.01.2021 03:45;4.279
09.01.2021 04:00;4.300
09.01.2021 04:15;4.276
09.01.2021 04:30;4.328
09.01.2021 04:45;4.352
09.01.2021 05:00;4.407
09.01.2021 05:15;4.304
09.01.2021 05:30;4.237
09.01.2021 05:45;4.246
09.01.2021 06:00;4.373
09.01.2021 06:15;4.432
09.01.2021 06:30;4.582
09.01.2021 06:45;4.649
09.01.2021 07:00;4.952
09.01.2021 07:15;5.235
09.01.2021 07:30;5.563
09.01.2021 07:45;5.938
09.01.2021 08:00;6.457
09.01.2021 08:15;6.769
09.01.2021 08:30;7.197
09.01.2021 08:45;7.824
09.01.2021 09:00;8.449
09.01.2021 09:15;9.071
09.01.2021 09:30;9.598
09.01.2021 09:45;10.084
09.01.2021 10:00;10.538
09.01.2021 10:15;11.072
09.01.2021 10:30;11.408
09.01.2021 10:45;11.765
09.01.2021 11:00;12.078
09.01.2021 11:15;12.488
09.01.2021 11:30;13.018
09.01.2021 11:45;13.249
09.01.2021 12:00;13.277
09.01.2021 12:15;13.587
09.01.2021 12:30;13.785
09.01.2021 12:45;13.856
09.01.2021 13:00;13.875
09.01.2021 13:15;13.927
09.01.2021 13:30;13.992
09.01.2021 13:45;13.594
09.01.2021 14:00;14.062
09.01.2021 14:15;14.357
09.01.2021 14:30;14.382
09.01.2021 14:45;14.262
09.01.2021 15:00;14.070
09.01.2021 15:15;13.911
09.01.2021 15:30;13.857
09.01.2021 15:45;13.697
09.01.2021 16:00;13.319
09.01.2021 16:15;13.409
09.01.2021 16:30;13.696
09.01.2021 16:45;14.226
09.01.2021 17:00;14.953
09.01.2021 17:15;15.703
09.01.2021 17:30;15.945
09.01.2021 17:45;16.018
09.01.2021 18:00;16.036
09.01.2021 18:15;16.132
09.01.2021 18:30;15.601
09.01.2021 18:45;15.005
09.01.2021 19:00;14.518
09.01.2021 19:15;14.273
09.01.2021 19:30;13.686
09.01.2021 19:45;12.992
09.01.2021 20:00;12.404
09.01.2021 20:15;11.953
09.01.2021 20:30;11.761
09.01.2021 20:45;11.495
09.01.2021 21:00;11.158
09.01.2021 21:15;11.090
09.01.2021 21:30;10.745
09.01.2021 21:45;10.640
09.01.2021 22:00;10.326
09.01.2021 22:15;9.711
09.01.2021 22:30;9.173
09.01.2021 22:45;8.869
09.01.2021 23:00;8.252
09.01.2021 23:15;7.809
09.01.2021 23:30;7.314
09.01.2021 23:45;6.902
10.01.2021 00:00;6.356
10.01.2021 00:15;5.980
10.01.2021 00:30;5.641
10.01.2021 00:45;5.372
10.01.2021 01:00;5.098
10.01.2021 01:15;4.882
10.01.2021 01:30;4.723
10.01.2021 01:45;4.557
10.01.2021 02:00;4.456
10.01.2021 02:15;4.234
10.01.2021 02:30;4.132
10.01.2021 02:45;4.038
10.01.2021 03:00;4.001
10.01.2021 03:15;3.910
10.01.2021 03:30;3.895
10.01.2021 03:45;3.874
10.01.2021 04:00;3.885
10.01.2021 04:15;3.883
10.01.2021 04:30;3.885
10.01.2021 04:45;3.832
10.01.2021 05:00;3.855
10.01.2021 05:15;3.773
10.01.2021 05:30;3.726
10.01.2021 05:45;3.668
10.01.2021 06:00;3.679
10.01.2021 06:15;3.633
10.01.2021 06:30;3.695
10.01.2021 06:45;3.754
10.01.2021 07:00;3.926
10.01.2021 07:15;4.150
10.01.2021 07:30;4.415
10.01.2021 07:45;4.696
10.01.2021 08:00;5.073
10.01.2021 08:15;5.338
10.01.2021 08:30;5.876
10.01.2021 08:45;6.453
10.01.2021 09:00;7.110
10.01.2021 09:15;7.848
10.01.2021 09:30;8.517
10.01.2021 09:45;9.033
10.01.2021 10:00;9.670
10.01.2021 10:15;10.377
10.01.2021 10:30;11.049
10.01.2021 10:45;11.545
10.01.2021 11:00;12.367
10.01.2021 11:15;12.984
10.01.2021 11:30;13.314
10.01.2021 11:45;13.659
10.01.2021 12:00;13.822
10.01.2021 12:15;14.095
10.01.2021 12:30;14.353
10.01.2021 12:45;14.526
10.01.2021 13:00;14.303
10.01.2021 13:15;13.953
10.01.2021 13:30;13.796
10.01.2021 13:45;13.390
10.01.2021 14:00;13.590
10.01.2021 14:15;13.716
10.01.2021 14:30;13.625
10.01.2021 14:45;13.406
10.01.2021 15:00;13.146
10.01.2021 15:15;12.984
10.01.2021 15:30;12.864
10.01.2021 15:45;12.676
10.01.2021 16:00;12.418
10.01.2021 16:15;12.355
10.01.2021 16:30;12.622
10.01.2021 16:45;13.203
10.01.2021 17:00;14.423
10.01.2021 17:15;15.401
10.01.2021 17:30;15.923
10.01.2021 17:45;16.107
10.01.2021 18:00;16.100
10.01.2021 18:15;16.093
10.01.2021 18:30;15.927
10.01.2021 18:45;15.292
10.01.2021 19:00;14.962
10.01.2021 19:15;14.417
10.01.2021 19:30;14.036
10.01.2021 19:45;13.524
10.01.2021 20:00;12.807
10.01.2021 20:15;12.177
10.01.2021 20:30;12.059
10.01.2021 20:45;11.494
10.01.2021 21:00;11.190
10.01.2021 21:15;10.998
10.01.2021 21:30;10.772
10.01.2021 21:45;10.768
10.01.2021 22:00;10.167
10.01.2021 22:15;9.585
10.01.2021 22:30;9.004
10.01.2021 22:45;8.297
10.01.2021 23:00;7.603
10.01.2021 23:15;7.034
10.01.2021 23:30;6.527
10.01.2021 23:45;5.978
11.01.2021 00:00;5.590
11.01.2021 00:15;5.246
11.01.2021 00:30;4.925
11.01.2021 00:45;4.664
11.01.2021 01:00;4.520
11.01.2021 01:15;4.355
11.01.2021 01:30;4.219
11.01.2021 01:45;4.104
11.01.2021 02:00;4.044
11.01.2021 02:15;3.980
11.01.2021 02:30;3.885